Regional Weather Roundup
Issued by NWS New Orleans/Baton Rouge, LA

Home | Current Version | Previous Version | Graphics & Text | Print | Product List | Glossary On
Versions: 1 2 3 4 5 6 7 8 9 10 11 12 13 14 15 16 17 18 19 20 21 22 23 24 25 26 27 28 29 30 31 32 33 34 35 36 37 38 39 40 41 42 43 44 45 46 47 48 49 50
621
ASUS44 KLIX 260301
RWRLIX
NEW ORLEANS REGIONAL WEATHER ROUNDUP
NATIONAL WEATHER SERVICE NEW ORLEANS LA
900 PM CST SUN JAN 25 2015

NOTE: "FAIR" INDICATES FEW OR NO CLOUDS BELOW 12,000 FEET WITH NO
      SIGNIFICANT WEATHER AND/OR OBSTRUCTIONS TO VISIBILITY.
      SKY/WX - SKY CONDITION AND SIGNIFICANT WEATHER.
      TMP - AIR TEMPERATURE.     DP    - DEWPOINT TEMPERATURE.
      RH  - RELATIVE HUMIDITY.   PRES  - PRESSURE.
      HI  - HEAT INDEX.          WCI   - WIND CHILL INDEX.

*  THESE STATIONS ARE NOT NWS OR FAA STATIONS AND ARE NOT UNDER
   NWS QUALITY CONTROL.

LAZ038-040-048-061>063-065>067-069-260400-
SOUTHEAST LOUISIANA

CITY           SKY/WX    TMP DP  RH WIND       PRES   REMARKS
N.O. AUDUBON     N/A     56  47  73 MISG        N/A
N.O. INTL ARPT PTCLDY    56  44  64 W13       29.94R
N.O. LAKEFRONT CLEAR     57  46  66 W20       29.94R
N.O. DOWNTOWN* MOCLDY    57  41  54 SW6       29.95R
SLIDELL        PTCLDY    57  42  57 VRB3      29.92R
BATON ROUGE    CLEAR     53  43  68 W7        29.96R
BOOTHVILLE     CLEAR     58  50  75 W18G26    29.95R
BELLE CHASSE   PTCLDY    55  43  63 W9        29.94R
BOGALUSA*        N/A     52  41  64 W6        29.92R
GALLIANO*      NOT AVBL
NEW ROADS*     NOT AVBL
GONZALES*      NOT AVBL
HAMMOND*       NOT AVBL
HOUMA*         CLEAR     53  47  82 W7        29.97S
PORT FOURCHON* CLEAR     57  52  82 W15G23    30.01R

$$

MSZ070-080>082-260400-
SOUTHERN MISSISSIPPI

CITY           SKY/WX    TMP DP  RH WIND       PRES   REMARKS
MCCOMB         CLEAR     55  36  48 NW10      29.91R
GULFPORT       PTCLDY    56  40  55 W7        29.89R
BILOXI         CLEAR     56  41  58 VRB6      29.89R
PASCAGOULA     PTCLDY    53  44  71 W5        29.88R

$$

COASTAL OBSERVATIONS
LAKE AND NEARSHORE STATIONS

STATION/POSITION TIME  TEMP    WIND        PRES    WAVE
                       AIR SEA DIR/SP/G            HT/PER
                 (UTC) (F)     (DEG/KT/KT) (MB)    (FT/S)
PASCAGOULA       0219   56     260/ 13/ 17 1011.0
WAVELAND YACHT   0219   58     260/  9/ 13 1011.0
GRAND ISLE       0219   59 58  270/ 18/ 24 1014.8
SOUTHWEST PASS   0219   61 47  250/ 29/ 36 1013.7
NEW CANAL        0219   58 52  260/ 13/ 18 1013.5
SHELL BEACH      0219   56 54  240/ 13/ 15 1012.8

OFFSHORE STATIONS

STATION/POSITION TIME  TEMP    WIND        PRES    WAVE
                       AIR SEA DIR/SP/G            HT/PER
                 (UTC) (F)     (DEG/KT/KT) (MB)    (FT/S)
64 S DAUPHIN ISL 0249   65 71  270/ 33/ 41 1012.5    8/ 6

$$




USA.gov is the U.S. government's official web portal to all federal, state and local government web resources and services.